Location: Home
(42.5358°N, 72.7383°W)
Time: 12:28:16
(UTC-05:00)

SR - All Passes

Search period start: 06 December 2021 00:00
Search period end: 16 December 2021 00:00
Orbit: 583 x 871 km, 66.7° (Epoch: 05 December)

Date Brightness Start Highest point End Pass type
(mag) Time Alt. Az. Time Alt. Az. Time Alt. Az.
06 Dec - 06:35:19 10° N 06:39:03 27° NE 06:42:55 10° ESE visible
06 Dec - 08:17:07 10° NW 08:21:03 33° WSW 08:25:12 10° S daylight
06 Dec - 21:08:00 10° SE 21:10:30 15° ESE 21:12:55 10° ENE night (unlit)
06 Dec - 22:47:31 10° SW 22:52:03 60° WNW 22:56:22 10° NNE night (unlit)
07 Dec - 05:46:18 10° N 05:48:51 15° NE 05:51:27 10° E visible
07 Dec - 07:26:58 10° NW 07:31:19 74° WSW 07:35:54 10° SSE daylight
07 Dec - 21:57:39 10° SSW 22:02:13 63° ESE 22:06:32 10° NE night (unlit)
07 Dec - 23:41:38 10° W 23:44:34 17° NW 23:47:27 10° N night (unlit)
08 Dec - 06:37:11 10° NNW 06:41:26 51° NE 06:45:54 10° SE visible
08 Dec - 08:20:12 10° WNW 08:23:05 17° WSW 08:26:03 10° SSW daylight
08 Dec - 21:08:33 10° S 21:12:29 28° ESE 21:16:16 10° NE night (unlit)
08 Dec - 22:50:22 10° WSW 22:54:25 31° NW 22:58:17 10° NNE night (unlit)
09 Dec - 05:47:45 10° N 05:51:24 26° NE 05:55:12 10° ESE visible
09 Dec - 07:29:25 10° NW 07:33:27 36° WSW 07:37:42 10° S daylight
09 Dec - 20:20:47 10° SE 20:22:55 13° ESE 20:25:00 10° E night (unlit)
09 Dec - 21:59:53 10° SW 22:04:25 65° WNW 22:08:45 10° NNE night (unlit)
10 Dec - 04:58:48 10° N 05:01:11 14° NE 05:03:37 10° ENE visible
10 Dec - 06:39:19 10° NNW 06:43:41 81° WSW 06:48:20 10° SSE visible
10 Dec - 21:10:06 10° SSW 21:14:36 58° ESE 21:18:52 10° NE night (unlit)
10 Dec - 22:53:50 10° W 22:56:54 18° NW 22:59:54 10° N night (unlit)
11 Dec - 05:49:34 10° NNW 05:53:48 47° NE 05:58:14 10° SE visible
11 Dec - 07:32:24 10° WNW 07:35:29 19° WSW 07:38:42 10° SSW daylight
11 Dec - 20:21:05 10° SSE 20:24:54 26° ESE 20:28:33 10° NE night (unlit)
11 Dec - 22:02:40 10° WSW 22:06:46 33° NW 22:10:42 10° NNE night (unlit)
12 Dec - 05:00:10 10° N 05:03:45 24° NE 05:07:28 10° ESE visible
12 Dec - 06:41:43 10° NW 06:45:51 40° WSW 06:50:12 10° S visible
12 Dec - 19:33:38 10° SE 19:35:20 12° ESE 19:36:59 10° E night (unlit)
12 Dec - 21:12:15 10° SW 21:16:48 70° WNW 21:21:07 10° NNE night (unlit)
12 Dec - 22:58:37 10° NW 22:59:34 11° NW 23:00:31 10° NNW night (unlit)
13 Dec - 04:11:19 10° NNE 04:13:30 13° NE 04:15:44 10° ENE visible
13 Dec - 05:51:40 10° NNW 05:56:04 88° WSW 06:00:44 10° SSE visible
13 Dec - 20:22:32 10° SSW 20:26:58 52° ESE 20:31:12 10° NE night (unlit)
13 Dec - 22:06:02 10° W 22:09:14 19° NW 22:12:21 10° N night (unlit)
14 Dec - 05:01:58 10° NNW 05:06:09 44° NE 05:10:35 10° SE visible
14 Dec - 06:44:36 10° WNW 06:47:53 20° WSW 06:51:19 10° SSW daylight
14 Dec - 19:33:39 10° SSE 19:37:17 24° ESE 19:40:48 10° ENE night (unlit)
14 Dec - 21:14:58 10° WSW 21:19:06 36° NW 21:23:06 10° NNE night (unlit)
15 Dec - 04:12:35 10° N 04:16:05 23° NE 04:19:42 10° E visible
15 Dec - 05:54:02 10° NW 05:58:14 43° WSW 06:02:41 10° S visible
15 Dec - 18:46:43 10° ESE 18:47:45 11° ESE 18:48:45 10° E night (unlit)
15 Dec - 20:24:38 10° SW 20:29:10 77° WNW 20:33:29 10° NNE night (unlit)
15 Dec - 22:10:30 10° WNW 22:11:52 11° NW 22:13:14 10° NNW night (unlit)
